Tracking 30115 objects as of 17-Jan-2025
HD Live streaming from Space Station
objects crossing your sky now

STARLINK-2581

Track STARLINK-2581 now!
10-day predictions
STARLINK-2581 is classified as:


NORAD ID: 48412
Int'l Code: 2021-038BM
Perigee: 553.3 km
Apogee: 555.4 km
Inclination: 53.1 °
Period: 95.6 minutes
Semi major axis: 6925 km
RCS: Unknown
Launch date: May 4, 2021
Source: United States (US)
Launch site: AIR FORCE EASTERN TEST RANGE (AFETR)
Your satellite tracking list
Your tracking list is empty




NASA's NSSDC Master Catalog

Two Line Element Set (TLE):
1 48412U 21038BM  25016.26086006 -.00001072  00000-0 -53074-4 0  9990
2 48412  53.0556   5.9594 0001569 104.6447 255.4716 15.06399688205095
Source of the keplerian elements: AFSPC